Hourly Weather Cobija

Today, 4 December, Friday

Time Temperature Precipitation Wind Pressure Humidity
00:00 +25°C° 0 mm 1 mps 737 mmHg 93%
01:00 +25°C° 0 mm 1 mps 737 mmHg 92%
02:00 +25°C° 0 mm 1 mps 737 mmHg 92%
03:00 +25°C° 0 mm 1 mps 737 mmHg 92%
04:00 +25°C° 0 mm 1 mps 736 mmHg 92%
05:00 +23°C° 0 mm 0 mps 737 mmHg 91%
06:00 +24°C° 0 mm 0 mps 738 mmHg 90%
07:00 +24°C° 0 mm 0 mps 738 mmHg 89%
08:00 +25°C° 0 mm 0 mps 738 mmHg 82%
09:00 +27°C° 0 mm 0 mps 739 mmHg 75%
10:00 +28°C° 0 mm 0 mps 739 mmHg 67%
11:00 +31°C° 0.1 mm 1 mps 738 mmHg 63%
12:00 +32°C° 0.1 mm 1 mps 737 mmHg 58%
13:00 +33°C° 0.1 mm 1 mps 736 mmHg 53%
14:00 +33°C° 0 mm 1 mps 735 mmHg 53%
15:00 +33°C° 0 mm 1 mps 735 mmHg 52%
16:00 +34°C° 0 mm 1 mps 734 mmHg 52%
17:00 +31°C° 0.8 mm 1 mps 735 mmHg 65%
18:00 +29°C° 0.8 mm 2 mps 735 mmHg 77%
19:00 +26°C° 0.8 mm 2 mps 736 mmHg 90%
20:00 +26°C° 0.4 mm 2 mps 737 mmHg 93%
21:00 +25°C° 0.4 mm 1 mps 737 mmHg 95%
22:00 +25°C° 0.4 mm 1 mps 738 mmHg 98%
23:00 +25°C° 0.1 mm 1 mps 738 mmHg 98%

Tomorrow, 5 December, Saturday

Time Temperature Precipitation Wind Pressure Humidity
00:00 +25°C° 0.1 mm 1 mps 738 mmHg 98%
01:00 +24°C° 0.1 mm 1 mps 737 mmHg 98%
02:00 +22°C° 0 mm 0 mps 737 mmHg 98%
03:00 +22°C° 0 mm 0 mps 737 mmHg 98%
04:00 +22°C° 0 mm 0 mps 737 mmHg 98%
05:00 +23°C° 0 mm 0 mps 738 mmHg 96%
06:00 +25°C° 0 mm 1 mps 739 mmHg 95%
07:00 +26°C° 0 mm 1 mps 739 mmHg 93%
08:00 +27°C° 0 mm 1 mps 740 mmHg 86%
09:00 +26°C° 0 mm 0 mps 740 mmHg 79%
10:00 +27°C° 0 mm 0 mps 741 mmHg 72%
11:00 +29°C° 0.9 mm 1 mps 740 mmHg 76%
12:00 +29°C° 0.9 mm 2 mps 739 mmHg 80%
13:00 +29°C° 0.9 mm 2 mps 738 mmHg 85%
14:00 +29°C° 0.9 mm 2 mps 738 mmHg 86%
15:00 +29°C° 0.9 mm 1 mps 737 mmHg 88%
16:00 +28°C° 0.9 mm 1 mps 737 mmHg 89%
17:00 +27°C° 0.5 mm 1 mps 737 mmHg 91%
18:00 +26°C° 0.5 mm 1 mps 737 mmHg 93%
19:00 +23°C° 0.5 mm 0 mps 738 mmHg 95%
20:00 +25°C° 0.5 mm 1 mps 738 mmHg 96%
21:00 +25°C° 0.5 mm 1 mps 739 mmHg 97%
22:00 +24°C° 0.5 mm 1 mps 740 mmHg 98%
23:00 +24°C° 0 mm 1 mps 739 mmHg 98%

Day after tomorrow, 6 December, Sunday

Time Temperature Precipitation Wind Pressure Humidity
00:00 +24°C° 0 mm 1 mps 739 mmHg 98%
01:00 +24°C° 0 mm 1 mps 738 mmHg 98%
02:00 +24°C° 0.1 mm 1 mps 738 mmHg 98%
03:00 +24°C° 0.1 mm 1 mps 738 mmHg 98%
04:00 +24°C° 0.1 mm 1 mps 738 mmHg 98%
05:00 +24°C° 0.1 mm 1 mps 739 mmHg 98%
06:00 +24°C° 0.1 mm 1 mps 739 mmHg 98%
07:00 +24°C° 0.1 mm 1 mps 740 mmHg 98%
08:00 +24°C° 0.1 mm 1 mps 740 mmHg 97%
09:00 +24°C° 0.1 mm 1 mps 740 mmHg 95%
10:00 +25°C° 0.1 mm 1 mps 741 mmHg 94%
11:00 +25°C° 0.5 mm 1 mps 740 mmHg 95%
12:00 +25°C° 0.5 mm 1 mps 739 mmHg 95%
13:00 +25°C° 0.5 mm 1 mps 738 mmHg 95%
14:00 +25°C° 0.1 mm 1 mps 738 mmHg 94%
15:00 +25°C° 0.1 mm 1 mps 737 mmHg 94%
16:00 +23°C° 0.1 mm 0 mps 737 mmHg 93%
17:00 +22°C° 0 mm 0 mps 737 mmHg 94%
18:00 +22°C° 0 mm 0 mps 737 mmHg 95%
19:00 +22°C° 0 mm 0 mps 738 mmHg 96%
20:00 +22°C° 0 mm 0 mps 738 mmHg 95%
21:00 +22°C° 0 mm 0 mps 739 mmHg 94%
22:00 +22°C° 0 mm 0 mps 739 mmHg 93%
23:00 +22°C° 0 mm 0 mps 739 mmHg 93%

7 December, Monday

Time Temperature Precipitation Wind Pressure Humidity
00:00 +22°C° 0 mm 0 mps 738 mmHg 93%
01:00 +21°C° 0 mm 0 mps 738 mmHg 92%
02:00 +21°C° 0 mm 0 mps 738 mmHg 93%
03:00 +21°C° 0 mm 0 mps 738 mmHg 93%
04:00 +21°C° 0 mm 0 mps 737 mmHg 93%
05:00 +22°C° 0 mm 0 mps 738 mmHg 90%
06:00 +23°C° 0 mm 0 mps 739 mmHg 88%
07:00 +23°C° 0 mm 0 mps 739 mmHg 85%
08:00 +25°C° 0 mm 0 mps 740 mmHg 78%
09:00 +26°C° 0 mm 0 mps 740 mmHg 72%
10:00 +29°C° 0 mm 1 mps 740 mmHg 65%
11:00 +31°C° 0.2 mm 1 mps 739 mmHg 62%
12:00 +32°C° 0.2 mm 1 mps 739 mmHg 58%
13:00 +34°C° 0.2 mm 1 mps 738 mmHg 54%
14:00 +32°C° 0.3 mm 1 mps 737 mmHg 60%
15:00 +31°C° 0.3 mm 1 mps 736 mmHg 66%
16:00 +30°C° 0.3 mm 1 mps 735 mmHg 72%
17:00 +28°C° 0.2 mm 1 mps 736 mmHg 80%
18:00 +27°C° 0.2 mm 1 mps 736 mmHg 87%
19:00 +25°C° 0.2 mm 1 mps 737 mmHg 95%
20:00 +25°C° 0 mm 1 mps 737 mmHg 95%
21:00 +24°C° 0 mm 1 mps 738 mmHg 95%
22:00 +22°C° 0 mm 0 mps 738 mmHg 96%
23:00 +22°C° 0 mm 0 mps 738 mmHg 96%

8 December, Tuesday

Time Temperature Precipitation Wind Pressure Humidity
00:00 +22°C° 0 mm 0 mps 737 mmHg 96%
01:00 +21°C° 0 mm 0 mps 737 mmHg 97%
02:00 +21°C° 0 mm 0 mps 737 mmHg 97%
03:00 +21°C° 0 mm 0 mps 737 mmHg 97%
04:00 +21°C° 0 mm 0 mps 737 mmHg 98%
05:00 +22°C° 0 mm 0 mps 738 mmHg 93%
06:00 +23°C° 0 mm 0 mps 738 mmHg 88%
07:00 +25°C° 0 mm 0 mps 739 mmHg 83%
08:00 +26°C° 0 mm 0 mps 739 mmHg 77%
09:00 +27°C° 0 mm 0 mps 739 mmHg 71%
10:00 +28°C° 0 mm 0 mps 739 mmHg 65%
11:00 +30°C° 0 mm 0 mps 738 mmHg 57%
12:00 +34°C° 0 mm 1 mps 737 mmHg 50%
13:00 +36°C° 0 mm 1 mps 736 mmHg 42%
14:00 +36°C° 0 mm 1 mps 735 mmHg 43%
15:00 +35°C° 0 mm 1 mps 735 mmHg 44%
16:00 +35°C° 0 mm 1 mps 734 mmHg 46%
17:00 +31°C° 0.1 mm 0 mps 734 mmHg 53%
18:00 +29°C° 0.1 mm 0 mps 735 mmHg 60%
19:00 +27°C° 0.1 mm 0 mps 735 mmHg 67%
20:00 +26°C° 0 mm 0 mps 735 mmHg 70%
21:00 +25°C° 0 mm 0 mps 736 mmHg 73%
22:00 +25°C° 0 mm 0 mps 736 mmHg 76%
23:00 +24°C° 0 mm 0 mps 736 mmHg 76%

9 December, Wednesday

Time Temperature Precipitation Wind Pressure Humidity
00:00 +24°C° 0 mm 0 mps 736 mmHg 77%
01:00 +26°C° 0 mm 1 mps 736 mmHg 78%
02:00 +26°C° 0 mm 1 mps 736 mmHg 79%
03:00 +25°C° 0 mm 1 mps 736 mmHg 80%
04:00 +25°C° 0 mm 1 mps 736 mmHg 82%
05:00 +26°C° 0.2 mm 1 mps 737 mmHg 83%
06:00 +26°C° 0.2 mm 1 mps 738 mmHg 84%
07:00 +27°C° 0.2 mm 1 mps 739 mmHg 85%
08:00 +30°C° 0 mm 1 mps 739 mmHg 72%
09:00 +32°C° 0 mm 2 mps 739 mmHg 59%
10:00 +36°C° 0 mm 2 mps 739 mmHg 47%
11:00 +37°C° 0 mm 2 mps 738 mmHg 43%
12:00 +38°C° 0 mm 2 mps 737 mmHg 39%
13:00 +39°C° 0 mm 2 mps 736 mmHg 35%
14:00 +39°C° 0 mm 2 mps 735 mmHg 36%
15:00 +37°C° 0 mm 1 mps 734 mmHg 37%
16:00 +37°C° 0 mm 1 mps 734 mmHg 38%
17:00 +35°C° 0 mm 1 mps 734 mmHg 43%
18:00 +33°C° 0 mm 1 mps 734 mmHg 48%
19:00 +32°C° 0 mm 1 mps 734 mmHg 54%
20:00 +31°C° 0 mm 1 mps 735 mmHg 57%
21:00 +30°C° 0 mm 1 mps 735 mmHg 60%
22:00 +29°C° 0 mm 1 mps 736 mmHg 63%
23:00 +28°C° 0.3 mm 1 mps 735 mmHg 70%
Show more